User: anonymous   Login
Location: Vancouver
(49.2500°N, 123.1330°W)
Time: 19:19:19
(UTC-08:00)
Language:

BREEZE-M DEB (TANK) - Orbit

View from above orbital plane
View from above orbital plane
View from above satellite
View from above satellite

Ground track
Ground track

The orbit data is extracted from the following two-line orbital elements,

1 27821U 03024B   18048.26005337 +.00001526 +00000-0 +18195-3 0  9997
2 27821 049.6174 053.4827 4921113 217.2866 095.6087 05.77617338294596
Epoch (UTC): 17 February 2018 06:14:28
Eccentricity: 0.4921113
inclination: 49.6174°
perigee height: 286 km
apogee height: 13200 km
right ascension of ascending node: 53.4827°
argument of perigee: 217.2866°
revolutions per day: 5.77617338
mean anomaly at epoch: 95.6087°
orbit number at epoch: 29459

The dashed part of the orbit path shows where the satellite is in the earth's shadow,  

DLR